{"data":{"norad_id":52656,"epoch":"2026-05-24T09:42:35.948736Z","epoch_age_seconds":137142,"freshness":"FRESH","line1":"1 52656U 22053A   26144.40458274  .00000593  00000+0  55305-4 0  9995","line2":"2 52656  53.2153 174.2308 0000871  69.2622 290.8464 15.08841428222542","mean_motion":15.08841428,"eccentricity":8.71e-5,"inclination_deg":53.2153,"raan_deg":174.2308,"arg_perigee_deg":69.2622,"mean_anomaly_deg":290.8464,"bstar":5.5305e-5,"rev_number":22254,"period_min":95.43746435361,"perigee_km":539.13647714112,"apogee_km":540.34157114453,"semimajor_km":6917.8760241428,"source":"CELESTRAK","updated_at":"2026-05-25T13:38:17.208871Z"}}